TimeEDT,TemperatureF,Dew PointF,Humidity,Sea Level PressureIn,VisibilityMPH,Wind Direction,Wind SpeedMPH,Gust SpeedMPH,PrecipitationIn,Events,Conditions,WindDirDegrees,DateUTC
12:15 AM,64.4,57.2,77,30.02,10.0,North,5.8,-,N/A,,Overcast,360,2013-07-26 04:15:00
12:35 AM,64.4,57.2,77,30.01,10.0,NNE,6.9,-,N/A,,Overcast,20,2013-07-26 04:35:00
12:55 AM,64.4,57.2,77,30.01,10.0,NNE,8.1,-,N/A,,Overcast,30,2013-07-26 04:55:00
1:15 AM,64.4,57.2,77,30.01,10.0,NNE,8.1,-,N/A,,Overcast,20,2013-07-26 05:15:00
1:35 AM,64.4,57.2,77,30.00,10.0,NNE,12.7,16.1,N/A,,Overcast,20,2013-07-26 05:35:00
1:55 AM,64.4,57.2,77,30.00,10.0,NNE,8.1,-,N/A,,Overcast,20,2013-07-26 05:55:00
2:15 AM,64.4,59.0,83,29.99,10.0,North,10.4,-,N/A,,Overcast,10,2013-07-26 06:15:00
2:35 AM,64.4,59.0,83,29.99,10.0,NNE,9.2,-,N/A,,Overcast,20,2013-07-26 06:35:00
2:55 AM,64.4,59.0,83,29.99,10.0,North,6.9,-,N/A,,Overcast,10,2013-07-26 06:55:00
3:15 AM,64.4,57.2,77,29.99,10.0,North,10.4,-,N/A,,Overcast,10,2013-07-26 07:15:00
3:35 AM,64.4,57.2,77,29.99,10.0,North,9.2,-,N/A,,Overcast,10,2013-07-26 07:35:00
3:55 AM,64.4,57.2,77,29.99,10.0,NNE,10.4,-,N/A,,Overcast,20,2013-07-26 07:55:00
4:15 AM,64.4,57.2,77,29.99,10.0,North,8.1,-,N/A,,Overcast,10,2013-07-26 08:15:00
4:35 AM,64.4,57.2,77,29.99,10.0,North,9.2,-,N/A,,Overcast,360,2013-07-26 08:35:00
4:55 AM,64.4,57.2,77,29.99,10.0,North,5.8,-,N/A,,Overcast,10,2013-07-26 08:55:00
5:15 AM,64.4,57.2,77,30.00,10.0,North,9.2,-,N/A,,Overcast,10,2013-07-26 09:15:00
5:35 AM,64.4,57.2,77,30.01,10.0,North,6.9,-,N/A,,Overcast,360,2013-07-26 09:35:00
5:55 AM,64.4,57.2,77,30.01,10.0,North,3.5,-,N/A,,Overcast,360,2013-07-26 09:55:00
6:15 AM,64.4,57.2,77,30.01,10.0,NW,5.8,-,N/A,,Overcast,310,2013-07-26 10:15:00
6:35 AM,64.4,57.2,77,30.02,10.0,NW,5.8,-,N/A,,Overcast,310,2013-07-26 10:35:00
6:55 AM,64.4,57.2,77,30.01,10.0,NNW,4.6,-,N/A,,Overcast,330,2013-07-26 10:55:00
7:15 AM,64.4,59.0,83,30.02,10.0,NW,4.6,-,N/A,,Overcast,320,2013-07-26 11:15:00
7:35 AM,66.2,59.0,78,30.02,10.0,North,6.9,-,N/A,,Overcast,360,2013-07-26 11:35:00
7:55 AM,66.2,59.0,78,30.02,10.0,North,6.9,-,N/A,,Overcast,360,2013-07-26 11:55:00
8:15 AM,68.0,59.0,73,30.03,10.0,North,6.9,-,N/A,,Mostly Cloudy,350,2013-07-26 12:15:00
8:35 AM,69.8,59.0,68,30.03,10.0,North,6.9,-,N/A,,Mostly Cloudy,10,2013-07-26 12:35:00
8:55 AM,69.8,60.8,73,30.04,10.0,NNW,6.9,-,N/A,,Mostly Cloudy,340,2013-07-26 12:55:00
9:15 AM,69.8,59.0,68,30.04,10.0,North,8.1,-,N/A,,Mostly Cloudy,10,2013-07-26 13:15:00
9:35 AM,69.8,60.8,73,30.04,10.0,NW,8.1,-,N/A,,Overcast,320,2013-07-26 13:35:00
9:55 AM,71.6,60.8,69,30.05,10.0,North,9.2,-,N/A,,Overcast,360,2013-07-26 13:55:00
10:15 AM,71.6,59.0,64,30.05,10.0,North,8.1,-,N/A,,Overcast,10,2013-07-26 14:15:00
10:35 AM,71.6,60.8,69,30.05,10.0,WNW,8.1,-,N/A,,Overcast,300,2013-07-26 14:35:00
10:55 AM,73.4,60.8,65,30.05,10.0,North,6.9,-,N/A,,Mostly Cloudy,360,2013-07-26 14:55:00
11:15 AM,73.4,60.8,65,30.04,10.0,North,6.9,-,N/A,,Mostly Cloudy,350,2013-07-26 15:15:00
11:35 AM,75.2,60.8,61,30.04,10.0,North,8.1,17.3,N/A,,Scattered Clouds,360,2013-07-26 15:35:00
11:55 AM,75.2,60.8,61,30.04,10.0,NW,6.9,-,N/A,,Scattered Clouds,310,2013-07-26 15:55:00
12:15 PM,75.2,60.8,61,30.04,10.0,NNW,10.4,-,N/A,,Partly Cloudy,340,2013-07-26 16:15:00
12:35 PM,78.8,60.8,54,30.04,10.0,WNW,5.8,-,N/A,,Mostly Cloudy,300,2013-07-26 16:35:00
12:55 PM,77.0,60.8,57,30.03,10.0,NNE,6.9,-,N/A,,Scattered Clouds,20,2013-07-26 16:55:00
1:15 PM,78.8,60.8,54,30.03,10.0,NW,8.1,-,N/A,,Scattered Clouds,320,2013-07-26 17:15:00
1:35 PM,78.8,59.0,51,30.04,10.0,NW,5.8,-,N/A,,Unknown,310,2013-07-26 17:35:00
1:55 PM,78.8,59.0,51,30.03,10.0,North,6.9,-,N/A,,Unknown,10,2013-07-26 17:55:00
2:15 PM,78.8,57.2,47,30.03,10.0,NW,5.8,-,N/A,,Unknown,310,2013-07-26 18:15:00
2:35 PM,78.8,57.2,47,30.03,10.0,North,6.9,-,N/A,,Unknown,10,2013-07-26 18:35:00
2:55 PM,78.8,57.2,47,30.03,10.0,East,4.6,-,N/A,,Unknown,100,2013-07-26 18:55:00
3:15 PM,77.0,62.6,61,30.04,10.0,SE,10.4,-,N/A,,Unknown,140,2013-07-26 19:15:00
3:35 PM,75.2,62.6,65,30.04,10.0,SSE,10.4,-,N/A,,Unknown,160,2013-07-26 19:35:00
3:55 PM,75.2,64.4,69,30.04,10.0,South,8.1,-,N/A,,Unknown,170,2013-07-26 19:55:00
4:15 PM,75.2,64.4,69,30.03,10.0,South,5.8,-,N/A,,Unknown,170,2013-07-26 20:15:00
4:35 PM,75.2,64.4,69,30.04,10.0,South,6.9,-,N/A,,Unknown,180,2013-07-26 20:35:00
4:55 PM,77.0,64.4,65,30.04,10.0,SSW,4.6,-,N/A,,Unknown,210,2013-07-26 20:55:00
5:15 PM,78.8,64.4,61,30.03,10.0,SSW,6.9,-,N/A,,Unknown,210,2013-07-26 21:15:00
5:35 PM,78.8,64.4,61,30.03,10.0,SSW,6.9,-,N/A,,Unknown,200,2013-07-26 21:35:00
5:55 PM,78.8,64.4,61,30.03,10.0,SSW,5.8,-,N/A,,Unknown,200,2013-07-26 21:55:00
6:15 PM,78.8,62.6,57,30.03,10.0,SSE,6.9,-,N/A,,Unknown,160,2013-07-26 22:15:00
6:35 PM,77.0,64.4,65,30.03,10.0,South,10.4,-,N/A,,Unknown,190,2013-07-26 22:35:00
6:55 PM,77.0,64.4,65,30.04,10.0,South,8.1,-,N/A,,Unknown,180,2013-07-26 22:55:00
7:15 PM,75.2,64.4,69,30.04,10.0,South,6.9,-,N/A,,Unknown,180,2013-07-26 23:15:00
7:35 PM,73.4,64.4,73,30.04,10.0,South,6.9,-,N/A,,Unknown,180,2013-07-26 23:35:00
7:55 PM,73.4,64.4,73,30.04,10.0,SSE,4.6,-,N/A,,Unknown,150,2013-07-26 23:55:00
8:15 PM,71.6,64.4,78,30.04,10.0,South,5.8,-,N/A,,Unknown,170,2013-07-27 00:15:00
8:35 PM,71.6,64.4,78,30.04,10.0,South,4.6,-,N/A,,Unknown,170,2013-07-27 00:35:00
8:55 PM,69.8,64.4,83,30.05,10.0,South,4.6,-,N/A,,Clear,180,2013-07-27 00:55:00
9:15 PM,69.8,64.4,83,30.05,10.0,South,5.8,-,N/A,,Clear,180,2013-07-27 01:15:00
9:35 PM,68.0,64.4,88,30.06,10.0,South,4.6,-,N/A,,Clear,190,2013-07-27 01:35:00
9:55 PM,68.0,64.4,88,30.06,10.0,South,4.6,-,N/A,,Clear,180,2013-07-27 01:55:00
10:15 PM,68.0,64.4,88,30.07,10.0,South,6.9,-,N/A,,Clear,180,2013-07-27 02:15:00
10:35 PM,68.0,64.4,88,30.07,10.0,SSW,5.8,-,N/A,,Clear,200,2013-07-27 02:35:00
10:55 PM,68.0,64.4,88,30.07,10.0,SSW,5.8,-,N/A,,Clear,200,2013-07-27 02:55:00
11:15 PM,68.0,64.4,88,30.07,10.0,SSW,9.2,-,N/A,,Clear,210,2013-07-27 03:15:00
11:35 PM,66.2,62.6,88,30.08,10.0,SSW,5.8,-,N/A,,Clear,200,2013-07-27 03:35:00
11:55 PM,66.2,62.6,88,30.07,10.0,SSW,6.9,-,N/A,,Clear,210,2013-07-27 03:55:00